SWA3234 KMDW-KBNA

Flight info

Callsign SWA3234
Flight time 0h 59m
Altitude 37000
Route CMSKY CARYN CYBIL TONES RYYMN3
Aircraft B737/M-SADE2E3GIJ4RWZ/LB1D1

Departure

Time 2026-05-07 21:48
Airport Chicago Midway International Airport (KMDW)

Arrival

Time 2026-05-07 22:48
Airport Nashville International Airport (KBNA)
Time Latitude Longitude Altitude Speed Heading
2026-05-07 21:40 41.78808 -87.74455 628 ft 0 kts 130°
2026-05-07 21:41 41.78819 -87.74472 637 ft 4 kts 130°
2026-05-07 21:42 41.78833 -87.74494 628 ft 4 kts 126°
2026-05-07 21:42 41.78838 -87.74519 635 ft 4 kts 52°
2026-05-07 21:42 41.78823 -87.74539 635 ft 1 kts 44°
2026-05-07 21:42 41.78823 -87.74540 634 ft 0 kts 44°
2026-05-07 21:45 41.78827 -87.74535 630 ft 2 kts 39°
2026-05-07 21:45 41.78857 -87.74524 628 ft 7 kts
2026-05-07 21:45 41.78915 -87.74509 631 ft 10 kts 32°
2026-05-07 21:46 41.78970 -87.74441 632 ft 11 kts 43°
2026-05-07 21:46 41.79022 -87.74374 628 ft 10 kts 44°
2026-05-07 21:46 41.79069 -87.74314 631 ft 7 kts 43°
2026-05-07 21:46 41.79106 -87.74269 638 ft 7 kts 37°
2026-05-07 21:47 41.79154 -87.74263 628 ft 8 kts 339°
2026-05-07 21:47 41.79185 -87.74315 636 ft 7 kts 266°
2026-05-07 21:47 41.79148 -87.74372 632 ft 12 kts 223°
2026-05-07 21:47 41.78914 -87.74669 632 ft 85 kts 223°
2026-05-07 21:48 41.78319 -87.75419 692 ft 141 kts 226°
2026-05-07 21:48 41.77573 -87.76284 1440 ft 144 kts 221°
2026-05-07 21:48 41.76633 -87.77041 1859 ft 173 kts 215°
2026-05-07 21:48 41.75505 -87.77930 2154 ft 200 kts 216°
2026-05-07 21:49 41.74225 -87.78879 2454 ft 222 kts 205°
2026-05-07 21:49 41.72662 -87.79343 2829 ft 242 kts 196°
2026-05-07 21:49 41.70940 -87.79763 3345 ft 256 kts 195°
2026-05-07 21:49 41.69197 -87.80189 4310 ft 256 kts 196°
2026-05-07 21:50 41.67436 -87.80633 5172 ft 259 kts 197°
2026-05-07 21:50 41.65651 -87.81096 6039 ft 263 kts 197°
2026-05-07 21:50 41.63837 -87.81576 6910 ft 267 kts 197°
2026-05-07 21:50 41.62003 -87.82067 7831 ft 271 kts 198°
2026-05-07 21:51 41.60159 -87.82565 8734 ft 276 kts 198°
2026-05-07 21:51 41.58250 -87.83085 9706 ft 281 kts 199°
2026-05-07 21:51 41.56318 -87.83611 10509 ft 289 kts 199°
2026-05-07 21:51 41.54254 -87.84184 10774 ft 317 kts 199°
2026-05-07 21:52 41.52011 -87.84803 11113 ft 339 kts 198°
2026-05-07 21:52 41.49674 -87.85435 11861 ft 348 kts 198°
2026-05-07 21:52 41.48095 -87.85860 12497 ft 351 kts 198°
2026-05-07 21:52 41.45689 -87.86509 13472 ft 354 kts 198°
2026-05-07 21:53 41.43260 -87.87169 14330 ft 359 kts 198°
2026-05-07 21:53 41.40777 -87.87792 15161 ft 367 kts 194°
2026-05-07 21:53 41.38201 -87.88116 16006 ft 374 kts 191°
2026-05-07 21:53 41.35584 -87.88338 16857 ft 379 kts 190°
2026-05-07 21:54 41.32932 -87.88552 17669 ft 384 kts 190°
2026-05-07 21:54 41.30252 -87.88790 18458 ft 388 kts 192°
2026-05-07 21:54 41.27538 -87.89050 19156 ft 393 kts 192°
2026-05-07 21:54 41.24792 -87.89306 19793 ft 401 kts 190°
2026-05-07 21:55 41.21961 -87.89327 20427 ft 410 kts 188°
2026-05-07 21:55 41.19082 -87.89244 21071 ft 417 kts 187°
2026-05-07 21:55 41.16200 -87.89127 21693 ft 423 kts 187°
2026-05-07 21:55 41.13238 -87.89002 22306 ft 429 kts 188°
2026-05-07 21:56 41.10229 -87.88882 22864 ft 435 kts 188°
2026-05-07 21:56 41.07182 -87.88771 23412 ft 441 kts 189°
2026-05-07 21:56 41.04088 -87.88666 23916 ft 446 kts 189°
2026-05-07 21:56 41.00978 -87.88562 24499 ft 448 kts 189°
2026-05-07 21:57 40.97856 -87.88458 25115 ft 448 kts 189°
2026-05-07 21:57 40.94731 -87.88357 25679 ft 450 kts 189°
2026-05-07 21:57 40.91590 -87.88259 26200 ft 453 kts 189°
2026-05-07 21:57 40.88423 -87.88161 26662 ft 456 kts 190°
2026-05-07 21:58 40.85252 -87.88061 27253 ft 456 kts 190°
2026-05-07 21:58 40.82080 -87.87961 27803 ft 457 kts 190°
2026-05-07 21:58 40.78891 -87.87863 28267 ft 460 kts 190°
2026-05-07 21:58 40.75672 -87.87765 28694 ft 463 kts 190°
2026-05-07 21:59 40.72483 -87.87667 29125 ft 466 kts 190°
2026-05-07 21:59 40.69240 -87.87567 29570 ft 468 kts 190°
2026-05-07 21:59 40.65968 -87.87465 30002 ft 470 kts 190°
2026-05-07 21:59 40.62695 -87.87363 30349 ft 473 kts 190°
2026-05-07 22:00 40.59405 -87.87259 30759 ft 473 kts 190°
2026-05-07 22:00 40.56117 -87.87153 31278 ft 470 kts 190°
2026-05-07 22:00 40.52862 -87.87047 31845 ft 466 kts 190°
2026-05-07 22:00 40.49630 -87.86943 32369 ft 463 kts 191°
2026-05-07 22:01 40.46411 -87.86845 32816 ft 462 kts 191°
2026-05-07 22:01 40.43200 -87.86749 33248 ft 460 kts 191°
2026-05-07 22:01 40.40016 -87.86650 33832 ft 455 kts 191°
2026-05-07 22:01 40.36852 -87.86553 34274 ft 453 kts 191°
2026-05-07 22:02 40.33697 -87.86459 34521 ft 454 kts 191°
2026-05-07 22:02 40.30522 -87.86277 34709 ft 464 kts 186°
2026-05-07 22:02 40.27280 -87.85751 34984 ft 469 kts 184°
2026-05-07 22:02 40.24049 -87.85101 35291 ft 470 kts 182°
2026-05-07 22:03 40.20824 -87.84407 35568 ft 469 kts 182°
2026-05-07 22:03 40.17658 -87.83721 35945 ft 466 kts 182°
2026-05-07 22:03 40.14456 -87.83044 36203 ft 466 kts 183°
2026-05-07 22:03 40.11239 -87.82386 36420 ft 467 kts 183°
2026-05-07 22:04 40.08021 -87.81743 36665 ft 468 kts 183°
2026-05-07 22:04 40.04804 -87.81109 36937 ft 468 kts 183°
2026-05-07 22:04 39.98310 -87.79845 36998 ft 471 kts 184°
2026-05-07 22:05 39.91885 -87.78586 37007 ft 466 kts 184°
2026-05-07 22:05 39.85502 -87.77336 37016 ft 463 kts 184°
2026-05-07 22:06 39.79143 -87.76102 37019 ft 461 kts 184°
2026-05-07 22:06 39.72801 -87.74872 37014 ft 459 kts 185°
2026-05-07 22:07 39.66494 -87.73651 37017 ft 458 kts 185°
2026-05-07 22:07 39.60180 -87.72432 37021 ft 458 kts 185°
2026-05-07 22:08 39.53863 -87.71214 36985 ft 458 kts 185°
2026-05-07 22:08 39.47589 -87.70005 37011 ft 458 kts 185°
2026-05-07 22:09 39.41266 -87.68788 37030 ft 458 kts 185°
2026-05-07 22:09 39.34951 -87.67576 37032 ft 459 kts 185°
2026-05-07 22:10 39.28629 -87.66363 37029 ft 458 kts 186°
2026-05-07 22:10 39.22358 -87.65163 37029 ft 458 kts 186°
2026-05-07 22:11 39.16051 -87.63959 37033 ft 458 kts 186°
2026-05-07 22:11 39.09741 -87.62757 36957 ft 458 kts 186°
2026-05-07 22:12 39.03443 -87.61556 37024 ft 457 kts 186°
2026-05-07 22:12 38.97145 -87.60361 37028 ft 457 kts 186°
2026-05-07 22:13 38.90887 -87.59175 37027 ft 457 kts 186°
2026-05-07 22:13 38.84593 -87.57984 37015 ft 457 kts 186°
2026-05-07 22:14 38.78295 -87.56794 37038 ft 457 kts 186°
2026-05-07 22:14 38.71988 -87.55606 37049 ft 458 kts 186°
2026-05-07 22:15 38.65677 -87.54418 37056 ft 459 kts 186°
2026-05-07 22:15 38.59357 -87.53230 37032 ft 459 kts 186°
2026-05-07 22:16 38.53036 -87.52043 37049 ft 459 kts 186°
2026-05-07 22:16 38.46712 -87.50859 37056 ft 459 kts 186°
2026-05-07 22:17 38.40423 -87.49684 37058 ft 460 kts 186°
2026-05-07 22:17 38.34090 -87.48502 37061 ft 460 kts 186°
2026-05-07 22:18 38.24584 -87.46731 37060 ft 460 kts 186°
2026-05-07 22:19 38.18249 -87.45553 37063 ft 459 kts 186°
2026-05-07 22:19 38.11927 -87.44380 37062 ft 458 kts 186°
2026-05-07 22:20 38.05622 -87.43213 37060 ft 457 kts 186°
2026-05-07 22:20 38.02459 -87.42632 36665 ft 463 kts 186°
2026-05-07 22:20 37.99269 -87.41961 36090 ft 473 kts 179°
2026-05-07 22:20 37.96133 -87.40538 35437 ft 490 kts 171°
2026-05-07 22:21 37.92999 -87.38826 34684 ft 494 kts 169°
2026-05-07 22:21 37.89848 -87.37038 33830 ft 496 kts 169°
2026-05-07 22:21 37.86701 -87.35250 32976 ft 496 kts 169°
2026-05-07 22:21 37.83564 -87.33492 32407 ft 490 kts 169°
2026-05-07 22:22 37.80460 -87.31779 31827 ft 484 kts 170°
2026-05-07 22:22 37.77376 -87.30103 31265 ft 479 kts 170°
2026-05-07 22:22 37.74326 -87.28462 30718 ft 474 kts 170°
2026-05-07 22:22 37.71296 -87.26842 30159 ft 470 kts 170°
2026-05-07 22:23 37.68298 -87.25242 29482 ft 466 kts 169°
2026-05-07 22:23 37.65331 -87.23657 28926 ft 460 kts 169°
2026-05-07 22:23 37.62399 -87.22090 28357 ft 454 kts 169°
2026-05-07 22:23 37.59541 -87.20564 27813 ft 449 kts 169°
2026-05-07 22:24 37.56678 -87.19036 27251 ft 445 kts 169°
2026-05-07 22:24 37.53840 -87.17524 26702 ft 441 kts 169°
2026-05-07 22:24 37.51019 -87.16022 26141 ft 437 kts 169°
2026-05-07 22:24 37.48226 -87.14536 25605 ft 434 kts 168°
2026-05-07 22:25 37.45446 -87.13059 25059 ft 431 kts 168°
2026-05-07 22:25 37.42689 -87.11594 24466 ft 429 kts 168°
2026-05-07 22:25 37.39948 -87.10138 23956 ft 426 kts 168°
2026-05-07 22:25 37.37218 -87.08695 23391 ft 422 kts 169°
2026-05-07 22:26 37.34489 -87.07842 23134 ft 399 kts 187°
2026-05-07 22:26 37.31802 -87.07818 23100 ft 378 kts 193°
2026-05-07 22:26 37.29201 -87.07927 22781 ft 371 kts 194°
2026-05-07 22:26 37.26648 -87.08062 22433 ft 364 kts 194°
2026-05-07 22:27 37.24129 -87.08194 22086 ft 359 kts 194°
2026-05-07 22:27 37.21637 -87.08316 21747 ft 356 kts 194°
2026-05-07 22:27 37.19165 -87.08428 21409 ft 355 kts 194°
2026-05-07 22:27 37.16666 -87.08540 21185 ft 367 kts 193°
2026-05-07 22:28 37.14068 -87.08659 20957 ft 379 kts 193°
2026-05-07 22:28 37.11407 -87.08767 20712 ft 384 kts 192°
2026-05-07 22:28 37.08739 -87.08862 20457 ft 382 kts 192°
2026-05-07 22:28 37.06118 -87.08950 20209 ft 380 kts 192°
2026-05-07 22:29 37.03489 -87.09041 19959 ft 378 kts 192°
2026-05-07 22:29 37.00863 -87.09134 19709 ft 376 kts 192°
2026-05-07 22:29 36.98257 -87.09229 19474 ft 374 kts 192°
2026-05-07 22:29 36.95654 -87.09326 19213 ft 373 kts 191°
2026-05-07 22:30 36.93069 -87.09423 18971 ft 372 kts 191°
2026-05-07 22:30 36.90477 -87.09519 18740 ft 372 kts 191°
2026-05-07 22:30 36.87892 -87.09616 18513 ft 372 kts 191°
2026-05-07 22:30 36.85301 -87.09712 18274 ft 372 kts 191°
2026-05-07 22:31 36.82710 -87.09762 18002 ft 377 kts 185°
2026-05-07 22:31 36.80139 -87.08970 17722 ft 397 kts 164°
2026-05-07 22:31 36.77650 -87.07472 17495 ft 399 kts 160°
2026-05-07 22:31 36.75178 -87.05884 17233 ft 398 kts 160°
2026-05-07 22:32 36.72715 -87.04309 16974 ft 397 kts 160°
2026-05-07 22:32 36.70246 -87.02770 16691 ft 395 kts 161°
2026-05-07 22:32 36.67789 -87.01262 16446 ft 393 kts 161°
2026-05-07 22:32 36.65338 -86.99767 16197 ft 391 kts 161°
2026-05-07 22:33 36.62900 -86.98282 15878 ft 389 kts 160°
2026-05-07 22:33 36.60473 -86.96802 15515 ft 388 kts 160°
2026-05-07 22:33 36.58056 -86.95328 15128 ft 384 kts 160°
2026-05-07 22:33 36.55681 -86.93880 14754 ft 378 kts 160°
2026-05-07 22:34 36.53330 -86.92448 14389 ft 373 kts 160°
2026-05-07 22:34 36.51004 -86.91034 14015 ft 371 kts 160°
2026-05-07 22:34 36.48713 -86.89644 13630 ft 370 kts 160°
2026-05-07 22:34 36.46409 -86.88246 13215 ft 368 kts 160°
2026-05-07 22:35 36.44118 -86.86856 12821 ft 365 kts 160°
2026-05-07 22:35 36.41842 -86.85474 12458 ft 362 kts 159°
2026-05-07 22:35 36.39585 -86.84106 12102 ft 360 kts 159°
2026-05-07 22:35 36.37348 -86.82750 11742 ft 355 kts 159°
2026-05-07 22:36 36.35148 -86.81417 11388 ft 349 kts 159°
2026-05-07 22:36 36.32987 -86.80109 11041 ft 342 kts 159°
2026-05-07 22:36 36.30865 -86.78826 10701 ft 336 kts 159°
2026-05-07 22:36 36.28776 -86.77563 10366 ft 330 kts 158°
2026-05-07 22:37 36.26730 -86.76329 10055 ft 325 kts 158°
2026-05-07 22:37 36.24683 -86.75374 9971 ft 303 kts 176°
2026-05-07 22:37 36.22659 -86.75376 9895 ft 280 kts 197°
2026-05-07 22:37 36.20833 -86.75974 9766 ft 266 kts 203°
2026-05-07 22:38 36.19096 -86.76645 9433 ft 265 kts 203°
2026-05-07 22:38 36.17337 -86.77323 9080 ft 264 kts 202°
2026-05-07 22:38 36.15585 -86.77985 8684 ft 262 kts 202°
2026-05-07 22:38 36.13847 -86.78634 8270 ft 261 kts 201°
2026-05-07 22:39 36.12121 -86.79310 7946 ft 256 kts 203°
2026-05-07 22:39 36.10500 -86.80022 8000 ft 245 kts 205°
2026-05-07 22:39 36.08885 -86.80760 8005 ft 249 kts 205°
2026-05-07 22:39 36.07264 -86.81503 7992 ft 245 kts 204°
2026-05-07 22:40 36.05694 -86.82223 7862 ft 237 kts 205°
2026-05-07 22:40 36.04156 -86.82931 7590 ft 234 kts 204°
2026-05-07 22:40 36.02610 -86.83486 7318 ft 236 kts 197°
2026-05-07 22:40 36.01003 -86.83925 7044 ft 235 kts 196°
2026-05-07 22:41 35.99401 -86.84358 6717 ft 238 kts 195°
2026-05-07 22:41 35.97770 -86.84807 6359 ft 241 kts 195°
2026-05-07 22:41 35.96124 -86.85276 5984 ft 244 kts 195°
2026-05-07 22:41 35.95020 -86.85597 5731 ft 247 kts 196°
2026-05-07 22:42 35.93309 -86.85938 5344 ft 253 kts 175°
2026-05-07 22:42 35.91715 -86.85106 5090 ft 252 kts 136°
2026-05-07 22:42 35.90726 -86.82618 4697 ft 247 kts 94°
2026-05-07 22:42 35.90762 -86.81201 4483 ft 244 kts 75°
2026-05-07 22:43 35.91421 -86.79327 4204 ft 235 kts 50°
2026-05-07 22:43 35.92598 -86.78025 3953 ft 223 kts 30°
2026-05-07 22:43 35.93886 -86.77037 3740 ft 213 kts 29°
2026-05-07 22:43 35.95120 -86.76099 3534 ft 202 kts 30°
2026-05-07 22:44 35.96271 -86.75221 3333 ft 192 kts 29°
2026-05-07 22:44 35.97381 -86.74372 3131 ft 188 kts 30°
2026-05-07 22:44 35.98538 -86.73544 2983 ft 193 kts 21°
2026-05-07 22:44 35.99777 -86.73002 2763 ft 186 kts 15°
2026-05-07 22:45 36.00994 -86.72531 2512 ft 178 kts 15°
2026-05-07 22:45 36.02133 -86.72079 2299 ft 165 kts 15°
2026-05-07 22:45 36.03171 -86.71663 2100 ft 145 kts 15°
2026-05-07 22:45 36.04088 -86.71297 1885 ft 133 kts 15°
2026-05-07 22:46 36.04966 -86.70946 1752 ft 135 kts 16°
2026-05-07 22:46 36.05860 -86.70588 1550 ft 134 kts 15°
2026-05-07 22:46 36.06720 -86.70245 1388 ft 129 kts 16°
2026-05-07 22:46 36.07595 -86.69889 1181 ft 136 kts 16°
2026-05-07 22:47 36.08512 -86.69529 1001 ft 139 kts 16°
2026-05-07 22:47 36.09436 -86.69161 793 ft 140 kts 15°
2026-05-07 22:47 36.10359 -86.68787 618 ft 139 kts 15°
2026-05-07 22:47 36.11230 -86.68439 573 ft 109 kts 18°
2026-05-07 22:48 36.11744 -86.68232 579 ft 49 kts 18°
2026-05-07 22:48 36.11945 -86.68150 577 ft 15 kts 24°
2026-05-07 22:48 36.12004 -86.68059 575 ft 13 kts 63°
2026-05-07 22:48 36.12039 -86.67975 578 ft 6 kts 60°
2026-05-07 22:49 36.12056 -86.67955 577 ft 4 kts 23°
2026-05-07 22:49 36.12092 -86.67941 575 ft 7 kts 17°
2026-05-07 22:49 36.12146 -86.67920 582 ft 9 kts 18°
2026-05-07 22:49 36.12215 -86.67892 578 ft 12 kts 18°
2026-05-07 22:50 36.12295 -86.67849 578 ft 14 kts 49°
2026-05-07 22:50 36.12306 -86.67739 578 ft 13 kts 58°
2026-05-07 22:50 36.12388 -86.67697 578 ft 14 kts 18°
2026-05-07 22:50 36.12477 -86.67651 579 ft 14 kts 39°
2026-05-07 22:51 36.12553 -86.67564 576 ft 17 kts 43°
2026-05-07 22:51 36.12648 -86.67479 577 ft 17 kts 29°
2026-05-07 22:51 36.12743 -86.67400 572 ft 16 kts 41°
2026-05-07 22:51 36.12815 -86.67313 569 ft 12 kts 60°
2026-05-07 22:52 36.12783 -86.67226 568 ft 12 kts 131°
2026-05-07 22:52 36.12721 -86.67136 568 ft 15 kts 130°
2026-05-07 22:52 36.12646 -86.67027 571 ft 17 kts 130°
2026-05-07 22:52 36.12628 -86.66920 575 ft 14 kts 41°
2026-05-07 22:53 36.12705 -86.66846 571 ft 14 kts 41°
2026-05-07 22:53 36.12781 -86.66782 572 ft 13 kts 15°
2026-05-07 22:53 36.12855 -86.66824 568 ft 10 kts 311°
2026-05-07 22:53 36.12866 -86.66896 571 ft 7 kts 253°
2026-05-07 22:54 36.12860 -86.66921 568 ft 0 kts 253°